Torna al catalogo

NOAA 16 DEB

AttivoSSO
NORAD 41351·DEBRIS·🇺🇸 United States

Lanciato Sep 21, 2000 da Vandenberg Space Force Base

Loading…

Prossimi Passaggi (prossime 24 ore)

TLE

AggiornatoSource: Space-Track

Epoca: Sep 13, 2026, 07:38 UTC

1 41351U 00055HU  26256.31837136  .00002005  00000-0  85119-3 0  9991
2 41351  98.6179 288.9604 0008045 249.7438 110.2878 14.26430518550952

Traccia NOAA 16 DEB in tempo reale con AllMySat

Download on the App Store